Cheyenne, WY

10:58 AM MDT on May 21, 2018 (GMT -0600)
Cheyenne

Weather History for KCYS - October, 2012

Change the Weather History Date:

Monday, October 15, 2012

  Actual Average Record
Temperature  
Mean Temperature 58 °F 46 °F  
Max Temperature 72 °F 59 °F 80 °F (1958)
Min Temperature 44 °F 34 °F 17 °F (1966)
Degree Days  
Heating Degree Days 7 18  
Month to date heating degree days 295 243  
Since 1 July heating degree days 465 524  
Cooling Degree Days 0 0  
Month to date cooling degree days 0 0  
Year to date cooling degree days 568 348  
Growing Degree Days 12 (Base 50)    
Moisture  
Dew Point 25 °F    
Average Humidity 36    
Maximum Humidity 58    
Minimum Humidity 14    
Precipitation  
Precipitation 0.00 in 0.03 in 1.19 in (1947)
Month to date precipitation 0.47 0.51  
Year to date precipitation 8.90 14.44  
Snow  
Snow 0.00 in 0.10 in 2.10 in (1948)
Month to date snowfall 3.7 2.0  
Since 1 July snowfall 3.7 3.3  
Snow Depth 0.00 in    
Sea Level Pressure  
Sea Level Pressure 29.86 in    
Wind  
Wind Speed 16 mph (West)    
Max Wind Speed 31 mph    
Max Gust Speed 39 mph    
Visibility 10 miles    
Events      
T = Trace of Precipitation, MM = Missing Value Source: NWS Daily Summary

Daily Weather History Graph

Daily Weather History Graph

Search for Another Location

Airport or City:

Astronomy

Oct. 15, 2012 Rise Set
Actual Time 7:11 AM MDT 6:17 PM MDT
Civil Twilight 6:43 AM MDT 6:45 PM MDT
Nautical Twilight 6:11 AM MDT 7:17 PM MDT
Astronomical Twilight 5:39 AM MDT 7:49 PM MDT
Moon 7:25 AM MDT (10/15) 6:18 PM MDT (10/15)
Length of Visible Light 12h 01m
Length of Day
11h 06m
New Moon, 0% of the Moon is Illuminated
Oct 15
New Moon
Oct 21
First Quarter
Oct 29
Full
Nov 6
Last Quarter
Nov 13
New

Hourly Weather History & Observations

Time (MDT) Temp. Windchill Dew Point Humidity Pressure Visibility Wind Dir Wind Speed Gust Speed Precip Events Conditions
12:53 AM 45.0 °F 40.6 °F 30.9 °F 58% 30.04 in 10.0 mi West 8.1 mph - N/A   Clear
1:53 AM 48.0 °F - 30.9 °F 52% 30.01 in 10.0 mi West 12.7 mph - 0.00 in   Clear
2:53 AM 46.0 °F 41.4 °F 30.0 °F 54% 29.99 in 10.0 mi SW 9.2 mph - N/A   Clear
3:53 AM 48.9 °F - 28.9 °F 46% 29.96 in 10.0 mi West 15.0 mph - N/A   Clear
4:53 AM 51.1 °F - 27.0 °F 39% 29.93 in 10.0 mi West 17.3 mph 23.0 mph N/A   Clear
5:53 AM 51.1 °F - 27.0 °F 39% 29.93 in 10.0 mi WSW 17.3 mph - 0.00 in   Clear
6:53 AM 52.0 °F - 26.1 °F 37% 29.93 in 10.0 mi WSW 20.7 mph - N/A   Clear
7:53 AM 53.1 °F - 26.1 °F 35% 29.95 in 10.0 mi WSW 15.0 mph - N/A   Clear
8:53 AM 57.0 °F - 28.9 °F 34% 29.93 in 10.0 mi West 9.2 mph - 0.00 in   Clear
9:53 AM 61.0 °F - 30.0 °F 31% 29.90 in 10.0 mi West 25.3 mph 33.4 mph N/A   Clear
10:53 AM 64.9 °F - 28.9 °F 26% 29.89 in 10.0 mi West 15.0 mph - N/A   Clear
11:53 AM 68.0 °F - 25.0 °F 20% 29.86 in 10.0 mi West 20.7 mph 27.6 mph N/A   Clear
12:53 PM 70.0 °F - 23.0 °F 17% 29.82 in 10.0 mi WSW 29.9 mph 38.0 mph N/A   Clear
1:53 PM 71.1 °F - 19.9 °F 14% 29.79 in 10.0 mi West 25.3 mph 35.7 mph N/A   Clear
2:53 PM 71.1 °F - 19.0 °F 14% 29.77 in 10.0 mi West 25.3 mph 34.5 mph N/A   Clear
3:53 PM 70.0 °F - 19.0 °F 14% 29.76 in 10.0 mi West 17.3 mph 26.5 mph N/A   Clear
4:53 PM 66.9 °F - 17.1 °F 15% 29.76 in 10.0 mi West 16.1 mph 29.9 mph N/A   Clear
5:53 PM 64.9 °F - 19.9 °F 18% 29.76 in 10.0 mi West 9.2 mph 17.3 mph N/A   Clear
6:53 PM 62.1 °F - 23.0 °F 22% 29.78 in 10.0 mi West 18.4 mph - N/A   Clear
7:53 PM 57.9 °F - 24.1 °F 27% 29.81 in 10.0 mi North - - N/A   Clear
8:53 PM 53.1 °F - 25.0 °F 34% 29.83 in 10.0 mi West 13.8 mph - N/A   Partly Cloudy
9:53 PM 57.9 °F - 24.1 °F 27% 29.78 in 10.0 mi West 12.7 mph - N/A   Clear
10:53 PM 52.0 °F - 25.0 °F 35% 29.79 in 10.0 mi NW 6.9 mph - N/A   Clear
11:53 PM 51.1 °F - 27.0 °F 39% 29.78 in 10.0 mi NW 10.4 mph - N/A   Clear